Spokane Fairchild, WA
on Monday, November 26, 2012

Monday
Previous Day Next Day
Daily Summary
 ActualAverage (KGEG)Record (KGEG)
Temperature
Mean Temperature °F 32°F  
Max Temperature 34°F 37°F 57°F (1949)
Min Temperature 23°F 27°F 2°F (1993)
Degree Days
Heating Degree Days 36 33  
Month to date heating degree days 742  
Since 1 July heating degree days 1530  
Cooling Degree Days 0 0  
Month to date cooling degree days 0  
Year to date cooling degree days 450  
Moisture
Dew Point 27°F   
Average Humidity 100    
Maximum Humidity 100    
Minimum Humidity 100    
Precipitation
Precipitation 0.00 in 0.08 in 0.69 in (1899)
Month to date precipitation 1.96  
Year to date precipitation 13.92  
Snow
Snow 0.00 in 0.40 in 3.80 in (1989)
Month to date snowfall 5.8  
Since 1 July snowfall 5.9  
Since 1 September snowfall 5.9  
Snow Depth in   
Wind
Wind Speed 5 mph   
Max Wind Speed 8 mph   
Max Gust Speed mph   
Visibility 6 miles   
Events Fog , Rain , Snow   

Key: T is trace of precipitation, MM is missing value
Source: NWS Daily Summary
Time(PST)TemperatureDew PointHumidity Pressure Visibility Wind DirectionWind SpeedGust SpeedPrecipitationEvents Conditions
12:03 AM 23.0°F 23.0°F 100% 30.29 in 1.0 miles NE 3.5 mph - N/A   Clear
12:06 AM 23.0°F 23.0°F 100% 30.29 in 1.5 miles NE 4.6 mph - N/A   Clear
12:11 AM 23.0°F 23.0°F 100% 30.29 in 3.0 miles East 2.3 mph - N/A   Clear
12:15 AM 23.0°F 23.0°F 100% 30.29 in 5.0 miles ENE 2.3 mph - N/A   Partly Cloudy
12:25 AM 23.0°F 23.0°F 100% 30.29 in 1.2 miles NNE 5.8 mph - N/A   Mostly Cloudy
12:30 AM 23.0°F 23.0°F 100% 30.29 in 0.5 miles NNE 4.6 mph - N/A Fog , Snow Light Freezing Fog
12:35 AM 23.0°F 23.0°F 100% 30.29 in 0.2 miles NNE 4.6 mph - N/A Fog , Snow Light Freezing Fog
12:40 AM 24.8°F 24.8°F 100% 30.29 in 0.2 miles NNE 5.8 mph - N/A Fog Light Freezing Fog
12:50 AM 26.6°F 26.6°F 100% 30.29 in 0.2 miles NNE 5.8 mph - N/A Fog , Snow Light Freezing Fog
12:58 AM 26.4°F 26.4°F 100% 30.38 in 0.2 miles NNE 5.8 mph - 0.00 in Fog , Snow Light Freezing Fog
1:19 AM 24.8°F 24.8°F 100% 30.29 in 0.2 miles NNE 5.8 mph - N/A Fog Light Freezing Fog
1:20 AM 24.8°F 24.8°F 100% 30.29 in 0.2 miles NNE 6.9 mph - N/A Fog Light Freezing Drizzle
1:58 AM 25.0°F 25.0°F 100% 30.38 in 0.2 miles NE 5.8 mph - 0.00 in Fog Light Freezing Drizzle
2:58 AM 26.1°F 26.1°F 100% 30.37 in 0.2 miles NNE 4.6 mph - 0.00 in Fog , Rain Light Freezing Rain
3:58 AM 25.7°F 25.7°F 100% 30.35 in 0.2 miles NE 4.6 mph - 0.00 in Fog , Rain Light Freezing Rain
4:58 AM 25.3°F 25.3°F 100% 30.35 in 0.2 miles NNE 6.9 mph - 0.00 in Fog , Rain Light Freezing Rain
5:23 AM 24.8°F 24.8°F 100% 30.26 in 0.2 miles NNE 6.9 mph - N/A Fog , Rain Light Freezing Rain
5:28 AM 24.8°F 24.8°F 100% 30.26 in 1.0 miles NNE 5.8 mph - N/A Rain Light Freezing Rain
5:43 AM 24.8°F 24.8°F 100% 30.26 in 1.0 miles North 4.6 mph - N/A Rain Light Freezing Rain
5:58 AM 25.3°F 25.3°F 100% 30.35 in 1.0 miles NNE 5.8 mph - 0.00 in   Mist
6:14 AM 24.8°F 24.8°F 100% 30.26 in 1.0 miles North 4.6 mph - N/A Rain Light Freezing Rain
6:18 AM 24.8°F 24.8°F 100% 30.35 in 1.0 miles NNE 5.8 mph - N/A   Mist
6:19 AM 24.8°F 24.8°F 100% 30.35 in 1.0 miles NNE 5.8 mph - N/A   Mist
6:34 AM 26.6°F 26.6°F 100% 30.25 in 1.0 miles NNE 4.6 mph - N/A Rain Light Freezing Rain
6:49 AM 26.6°F 26.6°F 100% 30.25 in 1.0 miles NNE 6.9 mph - N/A   Mist
6:51 AM 26.6°F 26.6°F 100% 30.25 in 1.0 miles NNE 6.9 mph - N/A   Mist
6:53 AM 26.6°F 26.6°F 100% 30.25 in 1.0 miles NNE 5.8 mph - N/A   Mist
6:55 AM 26.6°F 26.6°F 100% 30.25 in 1.0 miles NNE 5.8 mph - N/A   Mist
6:58 AM 25.9°F 25.9°F 100% 30.34 in 1.0 miles NNE 5.8 mph - 0.00 in   Mist
7:00 AM 26.6°F 26.6°F 100% 30.25 in 1.0 miles NNE 5.8 mph - N/A   Mist
7:03 AM 26.6°F 26.6°F 100% 30.25 in 0.8 miles NNE 6.9 mph - N/A Rain Light Freezing Rain
7:08 AM 26.6°F 26.6°F 100% 30.34 in 0.5 miles NNE 8.1 mph - N/A Fog Light Freezing Fog
7:58 AM 26.6°F 26.6°F 100% 30.34 in 0.8 miles North 5.8 mph - N/A   Mist
8:58 AM 26.6°F 26.6°F 100% 30.34 in 1.5 miles NNE 6.9 mph - N/A   Overcast
9:59 AM 27.7°F 27.7°F 100% 30.33 in 7.0 miles NNE 6.9 mph - N/A   Overcast
10:44 AM 28.4°F 28.4°F 100% 30.22 in 10.0 miles NNE 5.8 mph - N/A   Overcast
10:58 AM 28.4°F 28.4°F 100% 30.31 in 10.0 miles NNW 2.3 mph - N/A   Overcast
11:03 AM 28.4°F 28.4°F 100% 30.21 in 10.0 miles Variable 4.6 mph - N/A   Overcast
11:22 AM 28.4°F 28.4°F 100% 30.21 in 10.0 miles Variable 2.3 mph - N/A   Overcast
11:42 AM 28.4°F 28.4°F 100% 30.20 in 10.0 miles NE 3.5 mph - N/A   Overcast
11:58 AM 29.3°F 29.3°F 100% 30.30 in 10.0 miles NNE 4.6 mph - 0.00 in   Mostly Cloudy
12:03 PM 30.2°F 30.2°F 100% 30.20 in 10.0 miles NNE 4.6 mph - N/A   Scattered Clouds
12:13 PM 32.0°F 32.0°F 100% 30.20 in 10.0 miles NNW 5.8 mph - N/A   Mostly Cloudy
12:23 PM 32.0°F 32.0°F 100% 30.20 in 10.0 miles Variable 4.6 mph - N/A   Mostly Cloudy
12:28 PM 30.2°F 30.2°F 100% 30.20 in 10.0 miles North 4.6 mph - N/A   Mostly Cloudy
12:33 PM 32.0°F 32.0°F 100% 30.20 in 10.0 miles NNE 5.8 mph - N/A   Scattered Clouds
12:58 PM 31.3°F 31.3°F 100% 30.27 in 10.0 miles North 8.1 mph - N/A   Partly Cloudy
1:58 PM 33.3°F 33.3°F 100% 30.26 in 10.0 miles NE 8.1 mph - N/A   Clear
2:58 PM 34.0°F 34.0°F 100% 30.25 in 10.0 miles NNE 8.1 mph - N/A   Clear
3:08 PM 33.8°F 33.8°F 100% 30.16 in 10.0 miles NE 6.9 mph - N/A   Clear
3:30 PM 32.0°F 32.0°F 100% 30.16 in 10.0 miles NE 4.6 mph - N/A   Clear
3:38 PM 32.0°F 32.0°F 100% 30.15 in 10.0 miles NE 4.6 mph - N/A   Clear
3:47 PM 32.0°F 32.0°F 100% 30.15 in 10.0 miles ENE 4.6 mph - N/A   Clear
3:58 PM 31.8°F 31.8°F 100% 30.24 in 10.0 miles ENE 3.5 mph - 0.00 in   Clear
4:58 PM 29.3°F 29.3°F 100% 30.25 in 10.0 miles NNW 5.8 mph - N/A   Clear
5:16 PM 28.4°F 28.4°F 100% 30.16 in 10.0 miles NNW 4.6 mph - N/A   Clear
5:33 PM 28.4°F 28.4°F 100% 30.16 in 10.0 miles West 2.3 mph - N/A   Clear
5:54 PM 26.6°F 26.6°F 100% 30.16 in 10.0 miles NW 4.6 mph - N/A   Clear
5:58 PM 27.3°F 27.3°F 100% 30.26 in 10.0 miles NW 5.8 mph - 0.00 in   Clear
6:33 PM 26.6°F 26.6°F 100% 30.16 in 10.0 miles NNW 5.8 mph - N/A   Partly Cloudy
6:58 PM 27.1°F 27.1°F 100% 30.26 in 10.0 miles NNW 4.6 mph - 0.00 in   Partly Cloudy
7:58 PM 25.7°F 25.7°F 100% 30.26 in 10.0 miles NNW 2.3 mph - N/A   Clear
8:23 PM 24.8°F 24.8°F 100% 30.16 in 10.0 miles NNW 5.8 mph - N/A   Partly Cloudy
8:50 PM 28.4°F 28.4°F 100% 30.17 in 10.0 miles NNW 2.3 mph - N/A   Overcast
8:58 PM 28.0°F 28.0°F 100% 30.26 in 10.0 miles North 2.3 mph - 0.00 in   Overcast
9:58 PM 28.6°F 28.6°F 100% 30.27 in 10.0 miles North 4.6 mph - N/A   Overcast
10:20 PM 28.4°F 28.4°F 100% 30.18 in 10.0 miles NNW 2.3 mph - N/A   Overcast
10:28 PM 28.4°F 28.4°F 100% 30.18 in 10.0 miles North 4.6 mph - N/A   Overcast
10:58 PM 29.1°F 29.1°F 100% 30.27 in 10.0 miles North 4.6 mph - 0.00 in   Overcast
11:57 PM 30.2°F 30.2°F 100% 30.17 in 10.0 miles NNE 5.8 mph - N/A   Overcast
11:58 PM 29.5°F 29.5°F 100% 30.25 in 10.0 miles NNE 5.8 mph - N/A   Overcast
Moon Phase
Nov. 26 Nov. 28 Dec. 06 Dec. 13 Dec. 20
Sunrise:07:12 AM (PST) Moon Rise:03:02 PM (PST)11/26
Sunset:04:03 PM (PST) Moon Set:05:22 AM (PST)11/26

Copyright © 2014 The Weather Underground, Inc.